TIME,DELAY(SENSOR),PRES,OXYGEN,RAWTEMP,T(OPTODE),TCPHASE,FLUOR,BETA(BETA700),BETA(BETA412),BETA(BETA440),CDOM,C(CSC),ED(ED412.40),ED(ED444.00),ED(ED489.70),ED(ED554.30),LU(LU411.80),LU(LU443.40),LU(LU489.60),LU(LU554.10),COMP,TILTX,TILTY,CHECK
1357789812,5808,881.0599975585938000,49.0601692199707000,662.8607177734375000,4.5337510108947750,53.7131118774414060,52,98,89,79,79,15088,2147760283,2147423259,2148007762,2147877312,2147640073,2147059172,2148260982,2147195840,2037,4,13,57890
1357793408,5807,956.6599731445312000,51.5409202575683600,674.1862182617188000,4.1598110198974610,53.5126914978027340,52,99,84,78,81,15087,2147760768,2147424155,2148008356,2147878107,2147643876,2147061568,2148264082,2147195611,3026,4,13,26711
1357797008,5808,969.2800292968750000,52.7225685119628900,674.9000244140625000,4.1361942291259770,53.3602104187011700,53,99,89,79,79,15082,2147755638,2147424859,2148008960,2147877915,2147644269,2147055286,2148260224,2147195958,131,4,13,18360
1357800608,5811,1000.6599731445312000,51.6560783386230500,677.6046142578125000,4.0466609001159670,53.5369796752929700,52,100,84,78,80,15072,2147758829,2147424155,2148011410,2147871195,2147644772,2147054262,2148262555,2147193636,42,4,13,38721
1357804208,5811,1014.7000122070312000,52.0147781372070300,675.1398925781250000,4.1282582283020020,53.4584808349609400,51,99,87,79,81,15086,2147756626,2147424502,2148011172,2147873627,2147643501,2147055232,2148265115,2147200576,341,4,13,20182
1357807808,5806,1019.2399902343750000,51.5931701660156250,674.3917236328125000,4.1530151367187500,53.5054283142089840,52,98,87,78,80,15078,2147758336,2147421952,2148011520,2147873938,2147642505,2147058825,2148259776,2147197330,3564,4,13,34451
1357811408,5808,1016.9400024414062000,51.2800407409668000,674.2211303710938000,4.1586570739746090,53.5484504699707000,52,100,86,79,81,15084,2147759122,2147421092,2148010477,2147875638,2147643995,2147056896,2148260864,2147197403,3426,4,13,26817
1357815008,5811,1026.4100341796875000,50.6814994812011700,673.9008789062500000,4.1692500114440920,53.6236991882324200,52,98,89,80,81,15084,2147759771,2147423789,2148008484,2147876461,2147642477,2147059282,2148260818,2147196416,258,4,13,38538
1357818608,5808,1033.0699462890625000,50.5517196655273440,673.5941772460938000,4.1793918609619140,53.6428413391113300,52,97,87,78,80,15084,2147760941,2147423972,2148010944,2147877805,2147643419,2147061714,2148260489,2147198244,70,4,13,3781
1357822208,5811,1037.9000244140625000,50.1623001098632800,673.3118896484375000,4.1887297630310060,53.6868400573730500,52,99,86,79,81,15081,2147758290,2147419273,2148010614,2147876955,2147644105,2147059136,2148262290,2147197458,95,4,13,25246
1357825808,5808,1041.1999511718750000,50.1114196777343750,671.9260864257812000,4.2345490455627440,53.6761207580566400,52,98,86,78,80,15083,2147760896,2147424886,2148010203,2147877065,2147639030,2147054656,2148257334,2147197760,3017,4,13,44471
1357829408,5811,1028.1500244140625000,49.6358795166015600,672.7191162109375000,4.2083339691162110,53.7513694763183600,53,99,88,80,82,15080,2147758646,2147423826,2148011712,2147875428,2147644489,2147061997,2148261129,2147197019,150,4,13,5924
1357833008,5805,1016.9600219726562000,49.8832206726074200,673.6749267578125000,4.1767249107360840,53.7319793701171900,52,98,86,78,82,15081,2147758628,2147423204,2148009865,2147873920,2147642230,2147062006,2148259940,2147195894,2969,4,13,49173
1357836608,5808,1009.8599853515625000,50.9126701354980500,674.4680786132812000,4.1504840850830080,53.6031684875488300,53,98,84,80,81,15078,2147757412,2147424036,2148006756,2147874825,2147641792,2147058486,2148261787,2147193526,3220,4,13,56661
1357840208,5811,1011.7100219726562000,50.2655296325683600,676.0079956054688000,4.0995249748229980,53.7070999145507800,52,98,84,78,80,15079,2147757165,2147421348,2148011465,2147873929,2147641984,2147058313,2148265490,2147199899,567,4,13,36622
1357843808,5809,998.4500122070312000,51.1940612792968750,677.3792724609375000,4.0541229248046875,53.6010513305664060,53,99,86,79,81,15078,2147760795,2147421293,2148008603,2147872393,2147643410,2147058523,2148261677,2147197979,412,4,13,17830
1357847408,5809,1010.0100097656250000,51.9957313537597660,677.9404296875000000,4.0355358123779300,53.4980316162109400,52,99,84,79,82,15081,2147763035,2147420864,2148005348,2147874505,2147645229,2147054445,2148261814,2147200667,27,4,13,61516
1357851008,5808,1010.1300048828125000,51.9214096069335940,677.3228149414062000,4.0559921264648440,53.5012092590332000,53,98,90,78,81,15081,2147759323,2147420617,2148012406,2147871936,2147642377,2147055049,2148260818,2147195766,3,4,13,64302
1357854608,5804,1018.0000000000000000,52.3841896057128900,677.4188842773438000,4.0528111457824710,53.4399986267089840,51,98,86,79,81,15077,2147758939,2147423067,2148010413,2147874706,2147643291,2147057600,2148262162,2147197824,3581,4,14,15966
1357858208,5805,1020.1799926757812000,51.6572303771972660,676.9221191406250000,4.0692620277404785,53.5276603698730500,52,97,85,79,81,15080,2147754980,2147424822,2148005924,2147875446,2147641563,2147063305,2148258944,2147199725,3576,4,13,25158
1357861808,5809,1020.0000000000000000,51.6513404846191400,676.9860229492188000,4.0671458244323730,53.5302391052246100,52,98,88,79,79,15078,2147758290,2147424731,2148010267,2147874386,2147641792,2147062153,2148263670,2147196955,225,4,13,47267
1357865408,5812,1016.0700073242188000,51.7296981811523440,677.1475830078125000,4.0617918968200680,53.5233383178710940,52,98,89,79,80,15076,2147757961,2147423314,2148010907,2147874441,2147644260,2147057627,2148261650,2147198555,3516,4,13,7657
1357869008,5808,1020.0999755859375000,51.1141891479492200,677.2352905273438000,4.0588908195495605,53.6116409301757800,53,98,86,79,80,15075,2147757622,2147421531,2148011574,2147874468,2147643821,2147055003,2148264365,2147199314,140,4,13,65078
1357872608,5809,1012.2399902343750000,51.3029098510742200,677.5595092773438000,4.0481529235839840,53.5853004455566400,52,101,86,80,81,15075,2147760009,2147422866,2148011913,2147875483,2147643849,2147062464,2148263232,2147196800,702,4,13,43956
1357876208,5809,1019.4099731445312000,52.3546409606933600,677.6754150390625000,4.0443148612976070,53.4474906921386700,52,99,85,80,81,15073,2147758912,2147421961,2148009801,2147874249,2147642925,2147058907,2148261476,2147193106,227,4,13,60165
1357879808,5812,1018.2399902343750000,52.4954299926757800,677.7739868164062000,4.0410461425781250,53.4294891357421900,52,99,86,79,81,15067,2147762852,2147425874,2148012928,2147878848,2147645312,2147055588,2148261787,2147195529,428,4,13,60946
1357883408,5807,1015.7000122070312000,51.3760986328125000,677.5971069335938000,4.0469069480896000,53.5788993835449200,51,98,85,78,81,15068,2147761014,2147424621,2148011145,2147874715,2147648155,2147056429,2148264576,2147196086,386,4,13,22955
1357887008,5811,1016.3200073242188000,51.4696502685546900,677.7938232421875000,4.0403938293457030,53.5692100524902340,53,99,86,79,82,15067,2147757138,2147422774,2148011483,2147874212,2147643940,2147058130,2148261156,2147195913,325,4,13,7714
1357890608,5809,1019.8099975585938000,51.3420791625976560,676.9218750000000000,4.0692667961120605,53.5769996643066400,53,96,88,79,82,15065,2147761170,2147423469,2148010157,2147876818,2147644818,2147059346,2148260928,2147198820,3586,4,13,6176
1357894208,5808,1025.6099853515625000,50.6304283142089840,676.1821289062500000,4.0937628746032715,53.6596183776855500,53,97,87,80,80,15063,2147756324,2147423232,2148010002,2147877952,2147642038,2147053979,2148258907,2147196004,3301,4,13,62676
1357897808,5808,1020.4899902343750000,50.0782699584960940,676.2042236328125000,4.0930290222167970,53.7371711730957000,52,98,89,79,82,15065,2147756882,2147420854,2148010898,2147875574,2147640969,2147063332,2148260406,2147196928,3564,4,13,28706
1357901408,5805,1026.3000488281250000,51.3436088562011700,674.5504760742188000,4.1477599143981930,53.5446014404296900,53,99,87,78,80,15066,2147759469,2147421860,2148008310,2147872612,2147643008,2147057764,2148255414,2147201179,188,4,13,16734
1357905008,5809,1034.0600585937500000,50.2272911071777340,675.0601196289062000,4.1308979988098145,53.7058410644531250,52,100,87,79,80,15062,2147758171,2147421760,2148006427,2147873801,2147640649,2147059958,2148262235,2147198171,142,4,13,13254
1357908608,5811,1040.8100585937500000,50.0292510986328100,673.7952270507812000,4.1727471351623535,53.7123184204101560,54,99,85,78,80,15062,2147759606,2147420946,2148008603,2147875611,2147642386,2147059757,2148258633,2147200822,3244,4,13,62399
1357912208,5810,1030.6400146484375000,49.6139907836914060,674.9763183593750000,4.1336731910705570,53.7826499938964840,52,97,86,80,81,15062,2147759405,2147419593,2148009225,2147873435,2147642605,2147058706,2148257901,2147200182,243,4,13,11152
1357915808,5808,991.2199707031250000,49.5430793762207000,673.7968139648438000,4.1726927757263180,53.7836303710937500,52,99,87,78,79,15064,2147761581,2147424310,2148010413,2147871213,2147639186,2147058340,2148262692,2147199771,543,4,13,12841
1357919408,5810,1000.1199951171875000,49.9688110351562500,673.9398193359375000,4.1679649353027340,53.7223815917968750,53,100,88,78,82,15063,2147760374,2147421366,2148010779,2147873590,2147641755,2147064384,2148262701,2147198537,266,4,13,5965
1357923008,5809,1005.4299926757812000,49.7044296264648440,673.9008789062500000,4.1692500114440920,53.7571601867675800,52,96,87,78,81,15065,2147758016,2147424036,2148008859,2147876589,2147644992,2147058898,2148262985,2147199323,125,4,13,35845
1357926608,5806,998.1599731445312000,49.7305717468261700,673.9202880859375000,4.1686100959777830,53.7548217773437500,53,98,85,80,81,15066,2147761060,2147420187,2148009782,2147875291,2147639360,2147057874,2148259291,2147199286,750,4,13,27153
1357930208,5807,993.3800048828125000,49.7121582031250000,674.4213256835938000,4.1520352363586430,53.7682113647460940,52,98,90,80,81,15063,2147759689,2147420982,2148012489,2147874532,2147642715,2147055552,2148265078,2147198308,23,4,13,43815
1357933808,5807,987.9299926757812000,50.6657791137695300,674.7130126953125000,4.1423850059509280,53.6410484313964840,52,98,89,78,81,15062,2147759305,2147422281,2148010806,2147870866,2147640694,2147056073,2148260480,2147197229,80,4,13,6439
1357934456,5810,988.5200195312500000,50.6438407897949200,674.8162841796875000,4.1389641761779785,53.6440582275390600,52,98,83,79,81,15077,2147763136,2147419757,2148010176,2147875547,2147641060,2147057435,2148260288,2147196955,987,4,13,38140
